When you browse on this site, cookies collect data to enhance your experience and personalize the content and advertising you see.
Visit our Privacy Policy to learn more. By continuing to use the site, you agree to this use of cookies and data.

Stündliche Wetter Chester

Heute, 9 August, Sonntag

Zeit Temperatur Niederschläge Wind Luftdruck Luftfeuchtigkeit
00:00 +16°C° 0 mm 2 m/S 766 mmHg 84%
01:00 +16°C° 0 mm 2 m/S 765 mmHg 85%
02:00 +16°C° 0 mm 1 m/S 765 mmHg 86%
03:00 +15°C° 0 mm 1 m/S 765 mmHg 87%
04:00 +15°C° 0 mm 1 m/S 765 mmHg 87%
05:00 +16°C° 0 mm 2 m/S 765 mmHg 87%
06:00 +16°C° 0 mm 2 m/S 765 mmHg 86%
07:00 +17°C° 0 mm 2 m/S 765 mmHg 83%
08:00 +18°C° 0 mm 2 m/S 765 mmHg 79%
09:00 +19°C° 0 mm 2 m/S 765 mmHg 76%
10:00 +20°C° 0 mm 2 m/S 764 mmHg 74%
11:00 +21°C° 0 mm 2 m/S 764 mmHg 71%
12:00 +23°C° 0 mm 2 m/S 764 mmHg 69%
13:00 +23°C° 0 mm 2 m/S 763 mmHg 69%
14:00 +24°C° 0 mm 3 m/S 763 mmHg 69%
15:00 +24°C° 0 mm 3 m/S 763 mmHg 69%
16:00 +24°C° 0 mm 3 m/S 763 mmHg 72%
17:00 +24°C° 0 mm 2 m/S 762 mmHg 75%
18:00 +23°C° 0 mm 2 m/S 762 mmHg 77%
19:00 +23°C° 0 mm 2 m/S 762 mmHg 80%
20:00 +21°C° 0 mm 2 m/S 762 mmHg 83%
21:00 +20°C° 0 mm 2 m/S 762 mmHg 86%
22:00 +20°C° 0 mm 2 m/S 762 mmHg 86%
23:00 +20°C° 0 mm 2 m/S 762 mmHg 86%

Morgen, 10 August, Montag

Zeit Temperatur Niederschläge Wind Luftdruck Luftfeuchtigkeit
00:00 +19°C° 0 mm 2 m/S 762 mmHg 87%
01:00 +20°C° 0.4 mm 1 m/S 762 mmHg 88%
02:00 +20°C° 0.4 mm 1 m/S 762 mmHg 90%
03:00 +19°C° 0.4 mm 1 m/S 762 mmHg 91%
04:00 +19°C° 0.3 mm 1 m/S 762 mmHg 91%
05:00 +19°C° 0.3 mm 1 m/S 761 mmHg 91%
06:00 +19°C° 0.3 mm 1 m/S 761 mmHg 91%
07:00 +20°C° 0.1 mm 1 m/S 761 mmHg 87%
08:00 +21°C° 0.1 mm 1 m/S 761 mmHg 83%
09:00 +22°C° 0.1 mm 1 m/S 762 mmHg 80%
10:00 +23°C° 0.1 mm 2 m/S 761 mmHg 75%
11:00 +24°C° 0.1 mm 2 m/S 761 mmHg 71%
12:00 +25°C° 0.1 mm 2 m/S 761 mmHg 66%
13:00 +26°C° 0 mm 2 m/S 761 mmHg 66%
14:00 +27°C° 0 mm 2 m/S 760 mmHg 65%
15:00 +27°C° 0 mm 2 m/S 760 mmHg 64%
16:00 +27°C° 0.1 mm 2 m/S 760 mmHg 68%
17:00 +26°C° 0.1 mm 2 m/S 760 mmHg 72%
18:00 +25°C° 0.1 mm 2 m/S 760 mmHg 75%
19:00 +24°C° 1.6 mm 2 m/S 760 mmHg 80%
20:00 +22°C° 1.6 mm 3 m/S 760 mmHg 86%
21:00 +21°C° 1.6 mm 3 m/S 760 mmHg 91%
22:00 +21°C° 1.8 mm 3 m/S 760 mmHg 92%
23:00 +20°C° 1.8 mm 3 m/S 761 mmHg 93%

übermorgen, 11 August, Dienstag

Zeit Temperatur Niederschläge Wind Luftdruck Luftfeuchtigkeit
00:00 +20°C° 1.8 mm 4 m/S 761 mmHg 95%
01:00 +20°C° 0.4 mm 3 m/S 760 mmHg 95%
02:00 +19°C° 0.4 mm 2 m/S 760 mmHg 94%
03:00 +20°C° 0.4 mm 1 m/S 760 mmHg 94%
04:00 +20°C° 0 mm 1 m/S 760 mmHg 94%
05:00 +20°C° 0 mm 1 m/S 760 mmHg 94%
06:00 +20°C° 0 mm 1 m/S 760 mmHg 94%
07:00 +21°C° 0 mm 1 m/S 760 mmHg 91%
08:00 +22°C° 0 mm 1 m/S 760 mmHg 89%
09:00 +23°C° 0 mm 1 m/S 760 mmHg 86%
10:00 +24°C° 0 mm 1 m/S 760 mmHg 83%
11:00 +24°C° 0 mm 1 m/S 760 mmHg 80%
12:00 +25°C° 0 mm 1 m/S 760 mmHg 77%
13:00 +26°C° 0 mm 1 m/S 760 mmHg 75%
14:00 +27°C° 0 mm 2 m/S 760 mmHg 72%
15:00 +28°C° 0 mm 2 m/S 759 mmHg 70%
16:00 +27°C° 0.3 mm 2 m/S 759 mmHg 73%
17:00 +27°C° 0.3 mm 2 m/S 759 mmHg 77%
18:00 +26°C° 0.3 mm 2 m/S 759 mmHg 80%
19:00 +24°C° 0.5 mm 3 m/S 759 mmHg 84%
20:00 +22°C° 0.5 mm 3 m/S 759 mmHg 88%
21:00 +20°C° 0.5 mm 3 m/S 760 mmHg 92%
22:00 +20°C° 0.4 mm 2 m/S 760 mmHg 93%
23:00 +19°C° 0.4 mm 2 m/S 760 mmHg 93%

12 August, Mittwoch

Zeit Temperatur Niederschläge Wind Luftdruck Luftfeuchtigkeit
00:00 +19°C° 0.4 mm 2 m/S 760 mmHg 94%
01:00 +19°C° 0.2 mm 2 m/S 759 mmHg 94%
02:00 +19°C° 0.2 mm 2 m/S 759 mmHg 94%
03:00 +19°C° 0.2 mm 2 m/S 759 mmHg 94%
04:00 +19°C° 0.1 mm 2 m/S 759 mmHg 93%
05:00 +19°C° 0.1 mm 2 m/S 759 mmHg 93%
06:00 +19°C° 0.1 mm 2 m/S 759 mmHg 93%
07:00 +20°C° 0 mm 2 m/S 759 mmHg 89%
08:00 +20°C° 0 mm 3 m/S 759 mmHg 86%
09:00 +21°C° 0 mm 3 m/S 759 mmHg 82%
10:00 +22°C° 0 mm 3 m/S 759 mmHg 78%
11:00 +24°C° 0 mm 3 m/S 759 mmHg 74%
12:00 +25°C° 0 mm 3 m/S 759 mmHg 71%
13:00 +25°C° 0 mm 3 m/S 759 mmHg 71%
14:00 +25°C° 0 mm 3 m/S 758 mmHg 71%
15:00 +25°C° 0 mm 3 m/S 758 mmHg 71%
16:00 +24°C° 0 mm 3 m/S 758 mmHg 75%
17:00 +22°C° 0 mm 4 m/S 758 mmHg 78%
18:00 +21°C° 0 mm 4 m/S 757 mmHg 81%
19:00 +20°C° 0.2 mm 3 m/S 757 mmHg 85%
20:00 +19°C° 0.2 mm 2 m/S 758 mmHg 88%
21:00 +18°C° 0.2 mm 2 m/S 758 mmHg 92%
22:00 +18°C° 0.2 mm 2 m/S 757 mmHg 92%
23:00 +18°C° 0.2 mm 2 m/S 757 mmHg 92%

13 August, Donnerstag

Zeit Temperatur Niederschläge Wind Luftdruck Luftfeuchtigkeit
00:00 +18°C° 0.2 mm 3 m/S 757 mmHg 92%
01:00 +18°C° 0.1 mm 3 m/S 756 mmHg 93%
02:00 +17°C° 0.1 mm 2 m/S 756 mmHg 94%
03:00 +17°C° 0.1 mm 2 m/S 755 mmHg 95%
04:00 +17°C° 0.4 mm 2 m/S 755 mmHg 95%
05:00 +18°C° 0.4 mm 2 m/S 755 mmHg 95%
06:00 +18°C° 0.4 mm 2 m/S 755 mmHg 95%
07:00 +18°C° 0.2 mm 2 m/S 755 mmHg 95%
08:00 +18°C° 0.2 mm 3 m/S 755 mmHg 95%
09:00 +18°C° 0.2 mm 3 m/S 754 mmHg 95%
10:00 +19°C° 0 mm 3 m/S 754 mmHg 92%
11:00 +19°C° 0 mm 3 m/S 754 mmHg 89%
12:00 +20°C° 0 mm 3 m/S 754 mmHg 86%
13:00 +20°C° 0 mm 3 m/S 754 mmHg 86%
14:00 +20°C° 0 mm 3 m/S 754 mmHg 85%
15:00 +20°C° 0 mm 3 m/S 754 mmHg 85%
16:00 +19°C° 0.4 mm 3 m/S 754 mmHg 87%
17:00 +18°C° 0.4 mm 3 m/S 754 mmHg 90%
18:00 +18°C° 0.4 mm 3 m/S 754 mmHg 92%
19:00 +18°C° 0.2 mm 2 m/S 754 mmHg 93%
20:00 +17°C° 0.2 mm 2 m/S 754 mmHg 94%
21:00 +17°C° 0.2 mm 2 m/S 754 mmHg 95%
22:00 +17°C° 0.1 mm 2 m/S 754 mmHg 95%
23:00 +17°C° 0.1 mm 2 m/S 754 mmHg 95%

14 August, Freitag

Zeit Temperatur Niederschläge Wind Luftdruck Luftfeuchtigkeit
00:00 +17°C° 0.1 mm 2 m/S 754 mmHg 95%
01:00 +17°C° 0.4 mm 2 m/S 754 mmHg 95%
02:00 +18°C° 0.4 mm 1 m/S 753 mmHg 96%
03:00 +16°C° 0.4 mm 1 m/S 753 mmHg 96%
04:00 +18°C° 0.1 mm 1 m/S 753 mmHg 95%
05:00 +18°C° 0.1 mm 1 m/S 753 mmHg 95%
06:00 +18°C° 0.1 mm 1 m/S 753 mmHg 94%
07:00 +19°C° 0 mm 1 m/S 753 mmHg 93%
08:00 +19°C° 0 mm 1 m/S 753 mmHg 92%
09:00 +20°C° 0 mm 1 m/S 753 mmHg 91%
10:00 +20°C° 0.1 mm 1 m/S 753 mmHg 89%
11:00 +20°C° 0.1 mm 2 m/S 754 mmHg 88%
12:00 +20°C° 0.1 mm 2 m/S 754 mmHg 86%
13:00 +21°C° 0.3 mm 3 m/S 754 mmHg 82%
14:00 +22°C° 0.3 mm 3 m/S 754 mmHg 77%
15:00 +24°C° 0.3 mm 3 m/S 754 mmHg 73%
16:00 +22°C° 0.1 mm 3 m/S 754 mmHg 75%
17:00 +21°C° 0.1 mm 3 m/S 755 mmHg 76%
18:00 +20°C° 0.1 mm 3 m/S 755 mmHg 78%
19:00 +19°C° 0 mm 2 m/S 756 mmHg 81%
20:00 +19°C° 0 mm 1 m/S 756 mmHg 84%
21:00 +16°C° 0 mm 1 m/S 757 mmHg 87%
22:00 +16°C° 0 mm 1 m/S 757 mmHg 88%
23:00 +16°C° 0 mm 1 m/S 757 mmHg 89%
Mehr zeigen